DELTA 1 R/B, 6127

Orbit data source: Space-Track

DELTA 1 R/B, 6127 is space debris in SSO originally from a launch on Sun, 23 Jul 1972 UTC launched from the Air Force Western Test Range (AFWTR). Debris objects in space refer to the collection of defunct objects orbiting the Earth. Examples of debris include non-operational satellites, rocket bodies, and fragments generated from explosions, collisions, or faulty payload assembly.

Loading next visibility...
Identifier
6127, 1972-058B
Orbit
SSO
Country
Flag of USUS
Related business
Manufacturer
Aerojet
Mission
Spacecraft
Bus & Motor
DSV-3N, AJ10-118F
Mass
756 kg wet, 756 kg dry
Launch date (UTC)
1972-07-23 (53 years ago)
Launch vehicle
Unknown
Launch site
Air Force Western Test Range (AFWTR)
Object type
Payload
Rocket body
Debris
Shape & HBR
Unknown
Radar Cross Section
Large (>1 m²)

Expand to show TLE details & history
Last TLE update: 6 hours ago

TLE from 6 hours ago
0 DELTA 1 R/B
1  6127U 72058B   25299.83633970  .00003486  00000-0  38123-3 0  9995
2  6127  98.4922 144.2700 0085867 325.1944  34.3670 14.85925042665114
Epoch: 2025-10-26T20:04Z
TLE epoch observation values (Epoch: 2025-10-26T20:04:19.750Z)
Latitude
-0.00005°
Longitude
167.7409°
Altitude
564.316 km
Speed
7.606 km/s
True Right ascension
09h 37m 04s
True Declination
0° 00' 00"
Sunlit
Object was in daylight at epoch
Visualization orbit readout
Latitude
Unknown
Longitude
Unknown
Altitude
Unknown
Speed
Unknown
Apparent Right ascension
Unknown
Apparent Declination
Unknown
Sunlit
N/A
Visualization observer readout
Local Sidereal Time
21:16:04
Azimuth
Unknown
Elevation
Unknown
Doppler factor
Unknown
Orbital elements
Apogee altitude
667.73 km
Perigee altitude
547.758 km
Semi-major axis
6,985.881 km
Eccentricity
0.00859
Inclination
98.4922°
RAAN
144.27°
Arg. of periapsis
325.1944°
True anomaly
34.92739°
Mean anomaly
34.367°
Eccentric anomaly
34.6467°
Mean motion
3.71716 °/min
Orbital period
96.85 mins
BSTAR
0.00038123
Loading maneuver chart data...
Computing Atmospheric mass density...
Loading historical data...
Loading historical data...
Loading historical data...
Loading historical data...
Loading historical data...
Loading historical data...
Loading historical data...

Documentation

Showing up to 5 results
|